| time (UTC) | temp F | wind direction | speed MPH | gust MPH | rain 1hr in | rain 24hr in | rain mn in | humidity % | barometer mb |
| 20260507233040 | 56 | 297 | 0.0 | 0.0 | 0.00 | 0.00 | 0.00 | 80 | 1015.9 |
| 20260507231537 | 57 | 297 | 1.0 | 7.0 | 0.00 | 0.00 | 0.00 | 82 | 1016.0 |
| 20260507230033 | 57 | 305 | 0.0 | 6.0 | 0.00 | 0.00 | 0.00 | 83 | 1016.1 |
| 20260507224535 | 56 | 310 | 0.0 | 5.0 | 0.00 | 0.00 | 0.00 | 85 | 1016.1 |
| 20260507223029 | 56 | 335 | 0.0 | 0.0 | 0.00 | 0.00 | 0.00 | 87 | 1016.3 |
| 20260507221528 | 57 | 335 | 0.0 | 0.0 | 0.00 | 0.00 | 0.00 | 87 | 1016.3 |
| 20260507220027 | 57 | 335 | 0.0 | 0.0 | 0.00 | 0.00 | 0.00 | 87 | 1016.5 |
| 20260507214528 | 57 | 335 | 0.0 | 0.0 | 0.00 | 0.00 | 0.00 | 86 | 1016.6 |
| 20260507213025 | 57 | 335 | 0.0 | 0.0 | 0.00 | 0.00 | 0.00 | 86 | 1016.5 |
| 20260507211524 | 57 | 335 | 0.0 | 0.0 | 0.00 | 0.00 | 0.00 | 86 | 1016.5 |
| 20260507210038 | 57 | 335 | 0.0 | 0.0 | 0.00 | 0.00 | 0.00 | 85 | 1016.5 |
| 20260507204523 | 58 | 335 | 0.0 | 0.0 | 0.00 | 0.00 | 0.00 | 85 | 1016.5 |
| 20260507203022 | 58 | 335 | 0.0 | 0.0 | 0.00 | 0.00 | 0.00 | 84 | 1016.4 |
| 20260507201522 | 58 | 19 | 0.0 | 0.0 | 0.00 | 0.00 | 0.00 | 84 | 1016.3 |
| 20260507200021 | 58 | 87 | 0.0 | 0.0 | 0.00 | 0.00 | 0.00 | 84 | 1016.1 |
| 20260507194524 | 58 | 87 | 0.0 | 0.0 | 0.00 | 0.00 | 0.00 | 84 | 1015.9 |
| 20260507193023 | 59 | 102 | 0.0 | 0.0 | 0.00 | 0.00 | 0.00 | 83 | 1015.6 |
| 20260507191520 | 59 | 62 | 0.0 | 6.0 | 0.00 | 0.00 | 0.00 | 82 | 1015.5 |
| 20260507190022 | 59 | 70 | 0.0 | 3.0 | 0.00 | 0.00 | 0.00 | 81 | 1015.2 |
| 20260507184519 | 59 | 77 | 0.0 | 5.0 | 0.00 | 0.00 | 0.00 | 81 | 1015.2 |
| 20260507183025 | 59 | 67 | 0.0 | 4.0 | 0.00 | 0.00 | 0.00 | 80 | 1015.0 |
| 20260507181518 | 59 | 86 | 0.0 | 4.0 | 0.00 | 0.00 | 0.00 | 79 | 1014.9 |
| 20260507180017 | 60 | 71 | 0.0 | 3.0 | 0.00 | 0.00 | 0.00 | 78 | 1014.8 |
| 20260507174517 | 60 | 100 | 0.0 | 9.0 | 0.00 | 0.00 | 0.00 | 77 | 1014.8 |
| 20260507173020 | 60 | 65 | 3.0 | 10.0 | 0.00 | 0.00 | 0.00 | 77 | 1014.8 |
| 20260507171516 | 60 | 116 | 1.0 | 9.0 | 0.00 | 0.00 | 0.00 | 77 | 1014.7 |
| 20260507170016 | 61 | 83 | 2.0 | 11.0 | 0.00 | 0.00 | 0.00 | 76 | 1014.7 |
| 20260507164514 | 61 | 71 | 3.0 | 11.0 | 0.00 | 0.00 | 0.00 | 76 | 1014.6 |
| 20260507163015 | 61 | 71 | 4.0 | 11.0 | 0.00 | 0.00 | 0.00 | 75 | 1014.4 |
| 20260507161515 | 61 | 103 | 1.0 | 8.0 | 0.00 | 0.00 | 0.00 | 74 | 1014.4 |
| 20260507160020 | 62 | 61 | 3.0 | 10.0 | 0.00 | 0.00 | 0.00 | 74 | 1014.4 |
| 20260507154612 | 62 | 90 | 0.0 | 9.0 | 0.00 | 0.00 | 0.00 | 73 | 1014.5 |
| 20260507153028 | 61 | 92 | 1.0 | 10.0 | 0.00 | 0.00 | 0.00 | 73 | 1014.7 |
| 20260507151510 | 62 | 75 | 1.0 | 9.0 | 0.00 | 0.00 | 0.00 | 72 | 1014.8 |
| 20260507150008 | 62 | 63 | 1.0 | 9.0 | 0.00 | 0.00 | 0.00 | 71 | 1014.8 |
| 20260507144507 | 62 | 96 | 2.0 | 9.0 | 0.00 | 0.00 | 0.00 | 70 | 1014.9 |
| 20260507143012 | 63 | 112 | 0.0 | 10.0 | 0.00 | 0.00 | 0.00 | 69 | 1014.8 |
| 20260507141505 | 63 | 75 | 3.0 | 12.0 | 0.00 | 0.00 | 0.00 | 69 | 1015.0 |
| 20260507140009 | 63 | 65 | 2.0 | 11.0 | 0.00 | 0.00 | 0.00 | 68 | 1015.0 |
| 20260507134503 | 62 | 129 | 6.0 | 10.0 | 0.00 | 0.00 | 0.00 | 67 | 1015.4 |
| 20260507133002 | 62 | 69 | 2.0 | 11.0 | 0.00 | 0.00 | 0.00 | 68 | 1015.6 |
| 20260507131501 | 62 | 147 | 3.0 | 10.0 | 0.00 | 0.00 | 0.00 | 69 | 1015.7 |
| 20260507130100 | 62 | 98 | 1.0 | 10.0 | 0.00 | 0.00 | 0.00 | 71 | 1015.7 |
| 20260507130001 | 62 | 101 | 3.0 | 10.0 | 0.00 | 0.00 | 0.00 | 71 | 1015.8 |
| 20260507124606 | 62 | 122 | 1.0 | 10.0 | 0.00 | 0.00 | 0.00 | 72 | 1016.0 |
| 20260507123100 | 62 | 38 | 3.0 | 12.0 | 0.00 | 0.00 | 0.00 | 71 | 1016.1 |
| 20260507121559 | 62 | 176 | 2.0 | 11.0 | 0.00 | 0.00 | 0.00 | 72 | 1016.0 |
| 20260507120059 | 62 | 125 | 1.0 | 11.0 | 0.00 | 0.00 | 0.00 | 71 | 1016.2 |
| 20260507114559 | 62 | 59 | 2.0 | 12.0 | 0.00 | 0.00 | 0.00 | 71 | 1016.2 |
| 20260507113101 | 63 | 103 | 0.0 | 10.0 | 0.00 | 0.00 | 0.00 | 70 | 1016.2 |
| 20260507111555 | 63 | 47 | 4.0 | 13.0 | 0.00 | 0.00 | 0.00 | 72 | 1016.1 |
| 20260507110055 | 63 | 90 | 3.0 | 10.0 | 0.00 | 0.00 | 0.00 | 72 | 1016.4 |
| 20260507104552 | 62 | 90 | 2.0 | 11.0 | 0.00 | 0.00 | 0.00 | 72 | 1016.5 |
| 20260507103049 | 61 | 105 | 3.0 | 10.0 | 0.00 | 0.00 | 0.00 | 75 | 1016.7 |
| 20260507101553 | 60 | 116 | 3.0 | 10.0 | 0.00 | 0.00 | 0.00 | 72 | 1016.8 |
| 20260507100048 | 60 | 72 | 0.0 | 10.0 | 0.00 | 0.00 | 0.00 | 75 | 1016.9 |
| 20260507094546 | 60 | 105 | 0.0 | 10.0 | 0.00 | 0.00 | 0.00 | 77 | 1016.8 |
| 20260507093051 | 60 | 75 | 0.0 | 8.0 | 0.00 | 0.00 | 0.00 | 75 | 1016.9 |
| 20260507091544 | 61 | 89 | 3.0 | 10.0 | 0.00 | 0.00 | 0.00 | 76 | 1016.8 |
| 20260507090041 | 60 | 85 | 2.0 | 9.0 | 0.00 | 0.00 | 0.00 | 79 | 1016.7 |
| 20260507084540 | 58 | 101 | 2.0 | 10.0 | 0.00 | 0.00 | 0.00 | 83 | 1016.5 |
| 20260507083038 | 58 | 91 | 2.0 | 8.0 | 0.00 | 0.00 | 0.00 | 84 | 1016.6 |
| 20260507081537 | 58 | 78 | 3.0 | 10.0 | 0.00 | 0.00 | 0.00 | 83 | 1016.6 |
| 20260507080040 | 59 | 119 | 0.0 | 8.0 | 0.00 | 0.00 | 0.00 | 82 | 1016.6 |
| 20260507074536 | 59 | 84 | 1.0 | 10.0 | 0.00 | 0.00 | 0.00 | 81 | 1016.7 |
| 20260507073034 | 59 | 70 | 0.0 | 8.0 | 0.00 | 0.00 | 0.00 | 82 | 1016.6 |
| 20260507071558 | 59 | 98 | 0.0 | 4.0 | 0.00 | 0.00 | 0.00 | 82 | 1016.6 |
| 20260507070033 | 59 | 74 | 0.0 | 6.0 | 0.00 | 0.00 | 0.00 | 81 | 1016.5 |
| 20260507064530 | 58 | 27 | 0.0 | 4.0 | 0.00 | 0.00 | 0.00 | 82 | 1016.2 |
| 20260507063026 | 58 | 15 | 0.0 | 0.0 | 0.00 | 0.00 | 0.00 | 83 | 1016.2 |
| 20260507061525 | 57 | 347 | 0.0 | 3.0 | 0.00 | 0.00 | 0.00 | 83 | 1016.1 |
| 20260507060035 | 57 | 42 | 0.0 | 0.0 | 0.00 | 0.00 | 0.00 | 84 | 1016.0 |
| 20260507054522 | 56 | 286 | 0.0 | 4.0 | 0.00 | 0.00 | 0.00 | 86 | 1015.9 |
| 20260507053022 | 56 | 309 | 0.0 | 0.0 | 0.00 | 0.00 | 0.00 | 87 | 1015.8 |
| 20260507051529 | 55 | 315 | 0.0 | 0.0 | 0.00 | 0.00 | 0.00 | 87 | 1015.7 |
| 20260507050022 | 55 | 321 | 0.0 | 0.0 | 0.00 | 0.00 | 0.00 | 88 | 1015.4 |
| 20260507044521 | 55 | 293 | 0.0 | 0.0 | 0.00 | 0.00 | 0.00 | 87 | 1015.4 |
| 20260507043018 | 55 | 322 | 0.0 | 0.0 | 0.00 | 0.00 | 0.00 | 87 | 1015.4 |
| 20260507041517 | 55 | 306 | 0.0 | 0.0 | 0.00 | 0.00 | 0.00 | 87 | 1015.5 |
| 20260507040017 | 55 | 340 | 0.0 | 0.0 | 0.00 | 0.00 | 0.00 | 86 | 1015.4 |
| 20260507034529 | 55 | 320 | 0.0 | 0.0 | 0.00 | 0.00 | 0.00 | 85 | 1015.4 |
| 20260507033029 | 55 | 317 | 0.0 | 0.0 | 0.00 | 0.00 | 0.00 | 85 | 1015.5 |
| 20260507031513 | 56 | 336 | 0.0 | 0.0 | 0.00 | 0.00 | 0.00 | 84 | 1015.6 |
| 20260507030014 | 55 | 342 | 0.0 | 0.0 | 0.00 | 0.00 | 0.00 | 84 | 1015.5 |
| 20260507024513 | 55 | 347 | 0.0 | 0.0 | 0.00 | 0.00 | 0.00 | 85 | 1015.6 |
| 20260507023020 | 55 | 325 | 0.0 | 0.0 | 0.00 | 0.00 | 0.00 | 86 | 1015.4 |
| 20260507021511 | 55 | 325 | 0.0 | 0.0 | 0.00 | 0.00 | 0.00 | 86 | 1015.5 |
| 20260507020017 | 55 | 340 | 0.0 | 0.0 | 0.00 | 0.00 | 0.00 | 86 | 1015.5 |
| 20260507014512 | 55 | 334 | 0.0 | 0.0 | 0.00 | 0.00 | 0.00 | 87 | 1015.6 |
| 20260507013008 | 56 | 296 | 0.0 | 0.0 | 0.00 | 0.00 | 0.00 | 87 | 1015.6 |
| 20260507011506 | 56 | 301 | 0.0 | 0.0 | 0.00 | 0.00 | 0.00 | 88 | 1015.7 |
| 20260507010004 | 56 | 323 | 0.0 | 0.0 | 0.00 | 0.00 | 0.00 | 88 | 1015.7 |
| 20260507004503 | 56 | 323 | 0.0 | 0.0 | 0.00 | 0.00 | 0.00 | 88 | 1015.8 |
| 20260507003002 | 56 | 313 | 0.0 | 5.0 | 0.00 | 0.00 | 0.00 | 88 | 1015.8 |
| 20260507001604 | 56 | 310 | 0.0 | 3.0 | 0.00 | 0.00 | 0.00 | 87 | 1016.0 |
| 20260506234559 | 57 | 314 | 0.0 | 0.0 | 0.00 | 0.00 | 0.00 | 84 | 1016.2 |